STRAND 1

Satellite information

Favourite Embed

Satellite Type and Status

PAYLOADIN ORBIT

Key statistics

Satellite STRAND 1 at a glance.

Uptime

4577

Days in orbit

Revolutions

≈ 14.4

Per day

Orbit

SSO

Sun Synchronous Orbit

Inclination

98.4

Latest

Satellite identification and parameters

Extended collection of information and parameters for STRAND 1.

Object identification

Identified? True

Debris? False

Object name: STRAND 1

International designator: 2013-009E

Object number (NORAD): 39090

Object ID (CCSDS): 39090

Country: UNITED KINGDOM (UK)

Current information (Y/N): Y

RCS size: SMALL

Orbital parameters

Period: 100.217 minutes

Inclination: 98.3853 deg

SMA: 7146.957 km

Apoapsis: 775.122 km

Periapsis: 762.521 km

RAAN: 71.8436 deg

Eccentricy: 0.00088159

Argument of periapsis: 7.0182 deg

Mean anomaly: 353.1127 deg

Mean motion: 14.36881755 rev/day

Mean motion (dot): 0.00000544 rev/day2

B* drag term: 0.00019849578 1/REarth

Two-line elements (TLE)

Creation date: Sept. 7, 2025, 3:09 a.m.

Reference frame: TEME

Reference center: EARTH

Epoch: Sept. 6, 2025, 11:06 a.m. UTC

TLE line 0: 0 STRAND 1

TLE line 1: 1 39090U 13009E 25249.46261613 .00000544 00000-0 19850-3 0 9994

TLE line 2: 2 39090 98.3853 71.8436 0008816 7.0182 353.1127 14.36881755656310

Live tracking on map

Real-time ground track for satellite STRAND 1.

In-orbit conjunctions

There are no conjunctions computed for STRAND 1, at the moment. Check back to stay up to date, as we update our databases every day.

Go to all conjunctions

Associated space launch

SARAL or Satellite with ARgos and ALtiKa is a cooperative altimetry technology mission of Indian Space Research Organisation (ISRO) and CNES (Space Agency of France). SARAL is tasked to perform altimetric measurements designed to study ocean circulation and sea surface elevation.

STRAND 1 was lifted into orbit during the mission ‘PSLV-CA | SARAL’, on board a PSLV space rocket.

The launch took place on Feb. 25, 2013, 12:31 p.m. from Satish Dhawan Space Centre First Launch Pad.

For more information about the launch, click the button.

Launch to space PSLV-CA | SARAL
PSLV-CA | SARAL

Agency: N/A

Status: Launch Successful

Launch date: Feb. 25, 2013, 12:31 p.m. UTC

Rocket: PSLV

Launch pad: Satish Dhawan Space Centre First Launch Pad

Location: Satish Dhawan Space Centre, India

...

Latest news about this satellite

There are no fresh news available about this satellite. Check back as we update our databases every day.


Newsletter sign-up

Weekly statistics, charts and insights to help you stay on top of the space industry.